Location: Geroldsau
(48.7259°N, 8.2466°E)
Time: 08:10:29
(UTC+00:00)

MINOTAUR 4 R/B - Pass Details

Date: 20 June 2021
Orbit: 475 x 481 km, 98.0° (Epoch: 01 August)

Event Time Altitude Azimuth Distance (km) Brightness Sun altitude
Exits shadow 01:26:32 12° 158° (SSE) 1,546 6.2 -13.2°
Maximum altitude 01:29:49 73° 75° (ENE) 502 4.2 -12.9°
Drops below altitude 10° 01:33:22 10° 350° (N) 1,657 7.5 -12.6°
Sets 01:35:26 0° 348° (NNW) 2,541 8.5 -12.5°
